Location: Byszew
(52.1813°N, 19.2693°E)
Time: 19:06:51
(UTC+00:00)

Lacrosse 4 Rocket - Pass Details

Date: 03 March 2021
Orbit: 537 x 620 km, 68.0° (Epoch: 17 April)

Event Time Altitude Azimuth Distance (km) Brightness Sun altitude
Rises 19:12:08 0° 210° (SSW) 2,832 5.0 -25.7°
Reaches altitude 10° 19:14:21 10° 209° (SSW) 1,945 4.1 -26.0°
Enters shadow 19:14:28 11° 209° (SSW) 1,895 4.1 -26.0°
